LAB24 Weather Reports


time (UTC)temp
C
wind
direction
speed
KPH
gust
KPH
rain 1hr
cm
rain 24hr
cm
rain mn
cm
humidity
%
barometer
mb
20260906090033 30 329 0.0 4.8 0.00 0.00 0.00 42 1020.5
20260906084523 29 209 1.6 8.0 0.00 0.00 0.00 41 1020.5
20260906083029 28 157 0.0 8.0 0.00 0.00 0.00 42 1020.2
20260906081529 27 336 0.0 3.2 0.00 0.00 0.00 44 1020.1
20260906080010 27 36 0.0 4.8 0.00 0.00 0.00 45 1020.0
20260906074520 27 161 1.6 6.4 0.00 0.00 0.00 45 1019.8
20260906073023 26 169 0.0 3.2 0.00 0.00 0.00 45 1019.9
20260906071505 25 100 0.0 1.6 0.00 0.00 0.00 46 1019.7
20260906070010 23 197 0.0 3.2 0.00 0.00 0.00 45 1019.7
20260906064512 22 308 0.0 3.2 0.00 0.00 0.00 45 1019.7
20260906063038 21 279 1.6 4.8 0.00 0.00 0.00 47 1019.6
20260906061504 20 308 1.6 6.4 0.00 0.00 0.00 49 1019.4
20260906060005 20 276 1.6 6.4 0.00 0.00 0.00 51 1019.4
20260906054511 19 329 3.2 6.4 0.00 0.00 0.00 54 1019.3
20260906053015 18 306 3.2 11.3 0.00 0.00 0.00 56 1019.1
20260906051543 18 327 3.2 8.0 0.00 0.00 0.00 58 1019.1
20260906050004 18 308 3.2 8.0 0.00 0.00 0.00 60 1019.1
20260906044510 18 318 3.2 8.0 0.00 0.00 0.00 60 1019.0
20260906043017 18 257 3.2 11.3 0.00 0.00 0.00 60 1019.1
20260906041524 18 288 3.2 9.7 0.00 0.00 0.00 59 1019.0
20260906040035 18 302 3.2 6.4 0.00 0.00 0.00 59 1018.9
20260906034508 18 281 3.2 9.7 0.00 0.00 0.00 59 1018.9
20260906033011 18 313 3.2 11.3 0.00 0.00 0.00 60 1018.9
20260906031517 18 277 3.2 9.7 0.00 0.00 0.00 59 1018.7
20260906030025 18 309 3.2 8.0 0.00 0.00 0.00 59 1018.8
20260906024530 18 276 3.2 9.7 0.00 0.00 0.00 59 1018.9
20260906023011 18 297 3.2 6.4 0.00 0.00 0.00 58 1018.9
20260906021519 18 318 3.2 9.7 0.00 0.00 0.00 59 1018.9
20260906020023 19 269 1.6 6.4 0.00 0.00 0.00 59 1018.9
20260906014530 18 305 1.6 6.4 0.00 0.00 0.00 59 1018.9
20260906013052 18 316 3.2 8.0 0.00 0.00 0.00 59 1018.9
20260906011512 19 293 1.6 6.4 0.00 0.00 0.00 58 1019.0
20260906010021 19 276 3.2 6.4 0.00 0.00 0.00 59 1019.0
20260906004527 19 275 3.2 6.4 0.00 0.00 0.00 59 1019.1
20260906003035 19 282 1.6 8.0 0.00 0.00 0.00 60 1019.1
20260906001532 19 279 3.2 9.7 0.00 0.00 0.00 59 1019.2
20260906000019 19 306 3.2 11.3 0.00 0.00 0.00 59 1019.3
20260905234527 20 252 3.2 6.4 0.00 0.00 0.00 57 1019.4
20260905233039 20 355 3.2 6.4 0.00 0.00 0.00 56 1019.4
20260905231521 20 275 3.2 9.7 0.00 0.00 0.00 57 1019.4
20260905230019 20 302 3.2 6.4 0.00 0.00 0.00 56 1019.4
20260905224520 20 298 3.2 11.3 0.00 0.00 0.00 55 1019.2
20260905223004 21 311 3.2 6.4 0.00 0.00 0.00 56 1019.3
20260905221507 21 306 3.2 8.0 0.00 0.00 0.00 57 1019.4
20260905220011 21 191 3.2 6.4 0.00 0.00 0.00 55 1019.2
20260905214521 21 313 1.6 6.4 0.00 0.00 0.00 55 1019.3
20260905213024 21 335 3.2 9.7 0.00 0.00 0.00 56 1019.4
20260905211503 21 273 1.6 8.0 0.00 0.00 0.00 55 1019.3
20260905210013 22 324 3.2 6.4 0.00 0.00 0.00 56 1019.2
20260905204512 22 286 1.6 6.4 0.00 0.00 0.00 56 1019.1
20260905203020 22 272 3.2 6.4 0.00 0.00 0.00 54 1019.1
20260905201529 22 301 3.2 6.4 0.00 0.00 0.00 56 1019.1
20260905200007 23 306 1.6 4.8 0.00 0.00 0.00 57 1019.2
20260905194510 23 311 1.6 4.8 0.00 0.00 0.00 56 1019.1
20260905193016 23 236 1.6 4.8 0.00 0.00 0.00 55 1019.1
20260905191534 23 338 1.6 6.4 0.00 0.00 0.00 56 1019.1
20260905190028 24 341 1.6 4.8 0.00 0.00 0.00 54 1018.9
20260905184512 24 269 0.0 6.4 0.00 0.00 0.00 54 1018.8
20260905183014 25 247 0.0 3.2 0.00 0.00 0.00 52 1018.8
20260905181524 25 331 0.0 3.2 0.00 0.00 0.00 50 1018.6
20260905180027 26 243 0.0 4.8 0.00 0.00 0.00 49 1018.6
20260905174535 27 286 0.0 3.2 0.00 0.00 0.00 45 1018.5
20260905173012 27 310 0.0 4.8 0.00 0.00 0.00 43 1018.4
20260905171526 28 134 0.0 3.2 0.00 0.00 0.00 44 1018.3
20260905170025 28 138 0.0 6.4 0.00 0.00 0.00 43 1018.3
20260905164528 30 211 1.6 6.4 0.00 0.00 0.00 41 1018.4
20260905163035 30 102 0.0 8.0 0.00 0.00 0.00 40 1018.2
20260905161504 31 88 1.6 6.4 0.00 0.00 0.00 38 1018.1
20260905160004 31 104 1.6 6.4 0.00 0.00 0.00 36 1018.2
20260905154504 32 95 1.6 9.7 0.00 0.00 0.00 34 1018.3
20260905153003 33 164 1.6 12.9 0.00 0.00 0.00 33 1018.2
20260905151504 33 138 1.6 9.7 0.00 0.00 0.00 31 1018.2
20260905150004 33 219 3.2 9.7 0.00 0.00 0.00 30 1018.2
20260905144503 34 123 3.2 12.9 0.00 0.00 0.00 29 1018.2
20260905143004 35 144 1.6 11.3 0.00 0.00 0.00 26 1018.2
20260905141504 35 94 1.6 6.4 0.00 0.00 0.00 23 1018.1
20260905140005 35 146 3.2 8.0 0.00 0.00 0.00 23 1018.2
20260905134505 35 110 1.6 6.4 0.00 0.00 0.00 23 1018.4
20260905133007 34 177 1.6 9.7 0.00 0.00 0.00 23 1018.5
20260905131511 34 239 3.2 9.7 0.00 0.00 0.00 23 1018.6
20260905130005 34 147 1.6 11.3 0.00 0.00 0.00 24 1018.7
20260905124507 35 200 1.6 11.3 0.00 0.00 0.00 24 1018.8
20260905123008 34 152 3.2 9.7 0.00 0.00 0.00 24 1018.8
20260905121504 35 116 3.2 12.9 0.00 0.00 0.00 24 1019.0
20260905120019 35 198 1.6 9.7 0.00 0.00 0.00 23 1018.9
20260905114513 34 186 4.8 11.3 0.00 0.00 0.00 25 1018.9
20260905113006 34 127 0.0 9.7 0.00 0.00 0.00 24 1019.0
20260905111508 34 128 3.2 11.3 0.00 0.00 0.00 25 1019.2
20260905110005 33 310 0.0 9.7 0.00 0.00 0.00 24 1019.2
20260905104516 33 175 1.6 11.3 0.00 0.00 0.00 25 1019.1
20260905103013 33 181 4.8 14.5 0.00 0.00 0.00 26 1019.3
20260905101510 33 136 4.8 11.3 0.00 0.00 0.00 28 1019.3
20260905100011 32 144 4.8 11.3 0.00 0.00 0.00 29 1019.3
20260905094506 32 107 1.6 11.3 0.00 0.00 0.00 28 1019.4
20260905093011 32 169 4.8 12.9 0.00 0.00 0.00 31 1019.4
20260905091512 31 128 4.8 11.3 0.00 0.00 0.00 31 1019.4